Location: Guadanolo
(41.9167°N, 12.9333°E)
Time: 20:54:12
(UTC+00:00)

Nadezhda 1 Rocket - Pass Details

Date: 22 December 2019
Orbit: 941 x 1006 km, 83.0° (Epoch: 20 January)

Event Time Altitude Azimuth Distance (km) Brightness Sun altitude
Rises 16:56:44 0° 7° (N) 3,620 6.7 -13.6°
Reaches altitude 10° 17:00:18 10° 28° (NNE) 2,666 5.9 -14.3°
Enters shadow 17:00:41 11° 31° (NNE) 2,587 5.8 -14.3°
